Location: Keppel Henge
(44.7900°N, 80.9447°W)
Time: 03:04:08
(UTC-04:00)

Envisat - Pass Details

Date: 13 October 2017
Orbit: 764 x 766 km, 98.2° (Epoch: 19 October)

Event Time Altitude Azimuth Distance (km) Brightness Sun altitude
Exits shadow 22:37:12 15° 278° (W) 1,992 5.6 -40.7°
Drops below altitude 10° 22:39:32 10° 305° (NW) 2,309 6.1 -41.1°
Sets 22:42:54 0° 329° (NNW) 3,241 7.0 -41.5°
